Temp
14 14 14 14 15 15 15 15 16 16 16 16 17 17 18 18 19 19 20 23 22 22 21 21 21 21 21 20 22 22 18 19 20 24 26 28 28 27 26 23 23 23 20 19 19
14 14 14 15 15 15 15 16 16 16 16 17 16 17 17 18 18 20 24 24 23 22 21 21 20 21 22 22 23 21 19 20 19 25 26 28 29 28 25 23 21 20 19 19 19
14 14 14 15 15 15 16 16 16 17 17 17 17 16 16 17 17 24 25 25 23 22 22 22 22 22 23 24 25 23 22 24 24 27 28 28 29 30 24 22 21 20 19 19 19
14 14 14 15 15 15 16 16 17 17 17 17 17 17 16 16 19 24 24 25 24 22 22 22 22 24 24 24 26 26 26 27 28 29 27 26 28 29 25 23 21 20 20 20 19
14 14 14 15 16 16 16 16 16 16 16 17 16 16 15 14 20 24 24 24 24 22 22 21 22 24 24 26 27 28 27 28 27 27 28 25 27 28 25 23 21 20 20 20 20
14 14 14 15 15 16 16 16 16 16 16 16 17 16 14 13 24 24 24 24 24 22 22 22 23 25 26 27 27 29 29 27 26 28 29 28 29 29 25 23 21 21 20 20 20
14 14 15 15 16 16 16 15 15 16 15 15 16 15 12 19 25 23 24 24 24 24 22 22 24 25 26 26 28 29 29 29 29 29 29 30 26 29 25 24 23 22 21 21 21
13 14 14 15 15 16 15 16 16 17 16 16 16 14 14 24 24 23 22 24 24 23 23 23 24 25 26 28 28 28 29 28 29 30 31 29 25 26 26 25 24 23 22 21 21
13 14 14 15 15 15 15 16 16 16 16 15 15 13 14 22 23 25 24 24 24 23 23 23 24 25 26 26 25 26 26 27 29 32 33 30 28 24 24 26 25 24 24 23 21
12 13 14 14 15 15 15 16 16 16 15 14 13 12 19 23 24 24 24 25 25 24 24 24 25 24 25 24 23 24 25 27 28 31 31 30 29 25 25 25 22 24 24 24 23
12 12 14 14 15 15 15 15 15 16 15 15 15 16 17 22 24 24 24 24 25 25 23 24 22 23 24 25 26 27 27 27 29 31 30 30 29 27 24 22 22 24 25 24 24
12 12 13 15 15 15 15 15 15 14 15 15 16 16 19 19 18 23 24 24 25 24 24 23 22 25 27 27 27 27 27 27 30 31 30 30 30 30 25 25 26 26 25 24 25
12 12 13 15 15 15 15 14 14 15 14 15 17 17 17 19 19 20 23 25 24 24 25 23 25 27 27 27 27 27 26 27 28 30 32 31 30 30 26 25 21 20 22 24 26
11 12 13 13 14 14 14 14 14 15 12 17 20 21 21 19 21 22 23 25 25 24 25 25 26 27 26 27 27 25 28 29 29 28 27 30 25 27 29 26 23 21 20 23 26
12 12 13 11 12 12 13 14 14 15 13 23 20 20 19 21 24 25 25 25 24 25 25 25 26 26 26 27 28 27 29 29 29 28 26 29 28 29 29 28 26 24 23 26 26
12 12 12 12 12 13 13 14 14 13 14 20 18 18 18 19 21 24 24 24 26 25 26 26 28 27 27 28 29 29 28 27 28 27 25 27 27 27 29 30 29 29 29 29 28
13 12 12 12 13 13 13 14 13 13 19 18 16 17 17 19 20 20 21 23 23 22 23 26 26 28 29 27 28 28 25 23 23 25 25 26 26 26 30 31 30 31 30 30 29
13 13 12 12 13 13 13 13 12 17 16 17 16 16 16 17 17 16 15 21 24 24 22 22 23 27 29 27 26 27 26 21 21 23 25 27 27 28 29 31 34 34 32 31 29
13 13 13 13 13 13 14 12 14 16 16 15 15 14 15 16 15 14 14 16 21 25 23 23 24 28 28 29 28 27 26 26 25 25 24 25 27 28 30 31 31 32 33 31 30
11 11 13 14 14 14 13 12 15 16 16 15 12 14 13 13 13 13 12 15 14 14 18 24 22 27 29 29 29 28 27 25 25 22 23 26 26 27 29 30 31 30 31 32 32
10 10 14 14 14 14 12 14 15 15 14 13 12 12 13 12 11 12 12 13 12 12 13 16 20 24 27 27 27 27 26 27 24 23 21 23 26 30 29 30 30 30 32 33 32
6 10 13 13 13 14 13 14 14 14 13 13 12 12 12 13 11 10 11 11 10 10 9 15 16 22 24 27 30 28 28 26 26 23 25 24 26 28 28 31 31 31 34 34 33
5 9 11 12 11 11 12 13 14 13 12 11 11 12 12 12 9 8 9 11 10 10 12 13 14 19 23 24 26 28 28 28 25 23 24 24 24 30 28 31 31 30 34 35 34
6 9 9 9 10 10 10 11 12 13 12 10 11 9 10 11 10 7 7 9 9 10 11 12 14 16 20 23 25 26 28 28 26 26 26 25 28 31 29 29 28 32 35 34 34
7 8 5 6 7 7 10 11 9 11 11 11 11 11 8 8 9 9 9 10 11 9 9 11 13 17 20 23 25 28 29 29 27 27 26 27 27 28 31 29 28 32 34 33 34
6 4 3 3 5 8 9 9 10 10 10 11 11 12 10 8 6 8 10 10 9 9 8 11 12 16 19 23 26 26 27 29 29 29 28 27 27 27 28 30 29 29 31 31 31
4 3 2 3 5 6 7 8 8 9 8 8 11 11 11 11 9 10 11 12 12 10 8 10 13 14 17 23 23 22 25 28 29 29 28 26 27 27 29 27 27 30 31 31 31
Height
1515 1512 1508 1505 1501 1498 1495 1491 1489 1486 1483 1481 1478 1477 1475 1474 1474 1473 1466 1469 1475 1479 1481 1486 1491 1494 1499 1501 1499 1502 1515 1518 1511 1492 1478 1472 1469 1479 1481 1486 1491 1494 1498 1511 1517
1515 1511 1508 1504 1500 1496 1493 1489 1485 1483 1480 1477 1475 1474 1472 1470 1468 1461 1460 1465 1470 1474 1478 1482 1488 1492 1495 1495 1496 1500 1512 1507 1498 1486 1480 1480 1471 1477 1482 1488 1495 1497 1509 1515 1520
1515 1511 1507 1503 1499 1495 1491 1486 1482 1479 1476 1473 1472 1471 1470 1468 1465 1452 1452 1455 1464 1469 1473 1480 1486 1489 1491 1491 1488 1494 1496 1487 1488 1484 1484 1478 1477 1473 1482 1492 1489 1495 1505 1514 1519
1515 1510 1506 1501 1497 1492 1488 1484 1480 1476 1473 1470 1468 1467 1467 1467 1467 1452 1452 1453 1457 1465 1470 1475 1480 1484 1486 1486 1481 1484 1480 1480 1474 1479 1482 1479 1483 1475 1473 1486 1490 1494 1501 1509 1517
1515 1510 1505 1500 1495 1490 1485 1481 1477 1473 1470 1467 1465 1464 1463 1463 1447 1449 1450 1454 1456 1460 1464 1469 1473 1476 1478 1478 1476 1474 1473 1472 1470 1474 1471 1468 1475 1469 1480 1487 1494 1501 1506 1511 1516
1514 1509 1504 1498 1493 1488 1483 1478 1473 1470 1466 1463 1461 1461 1460 1459 1442 1445 1448 1450 1452 1456 1459 1464 1466 1470 1471 1472 1470 1465 1466 1471 1478 1468 1473 1467 1469 1473 1482 1486 1494 1501 1506 1510 1515
1513 1508 1503 1497 1491 1485 1480 1475 1470 1466 1463 1460 1457 1456 1454 1437 1440 1442 1443 1447 1450 1451 1455 1459 1463 1466 1468 1466 1464 1463 1466 1466 1463 1458 1464 1469 1475 1473 1482 1486 1496 1501 1507 1510 1512
1512 1506 1501 1495 1490 1484 1478 1472 1467 1462 1458 1456 1453 1452 1441 1434 1434 1437 1441 1445 1447 1450 1454 1459 1461 1464 1463 1463 1460 1460 1459 1472 1458 1454 1449 1465 1481 1475 1475 1470 1490 1499 1508 1509 1510
1511 1505 1499 1494 1489 1483 1478 1471 1465 1457 1455 1452 1452 1451 1436 1431 1429 1431 1436 1441 1444 1449 1453 1457 1460 1460 1461 1462 1467 1458 1470 1464 1455 1443 1443 1449 1464 1471 1472 1477 1493 1498 1501 1507 1509
1510 1504 1499 1493 1488 1483 1477 1471 1463 1458 1455 1453 1454 1454 1431 1427 1428 1430 1433 1437 1441 1446 1452 1454 1455 1457 1454 1459 1474 1470 1466 1459 1456 1441 1441 1449 1452 1465 1473 1471 1476 1507 1503 1502 1505
1509 1503 1497 1491 1487 1482 1475 1470 1467 1462 1459 1463 1453 1442 1424 1425 1424 1424 1429 1435 1438 1441 1443 1445 1454 1450 1445 1448 1450 1453 1454 1455 1443 1434 1442 1446 1450 1460 1467 1473 1484 1493 1500 1498 1504
1508 1502 1495 1490 1485 1482 1478 1476 1477 1474 1441 1441 1430 1427 1425 1426 1431 1417 1426 1430 1429 1431 1436 1444 1442 1436 1440 1444 1448 1447 1451 1451 1439 1429 1437 1442 1447 1444 1458 1460 1466 1474 1496 1503 1501
1507 1500 1494 1488 1484 1482 1479 1478 1474 1470 1459 1419 1416 1420 1417 1421 1420 1414 1420 1420 1421 1425 1425 1430 1422 1432 1433 1439 1444 1443 1447 1446 1446 1430 1426 1433 1445 1444 1453 1455 1465 1471 1484 1492 1491
1506 1499 1493 1486 1486 1482 1479 1475 1471 1467 1465 1427 1415 1413 1415 1412 1411 1410 1410 1417 1418 1419 1419 1420 1421 1422 1429 1431 1433 1446 1433 1435 1434 1442 1458 1427 1478 1447 1442 1448 1456 1461 1466 1472 1481
1507 1500 1491 1489 1484 1481 1478 1473 1469 1467 1479 1418 1423 1423 1415 1413 1403 1401 1403 1409 1408 1412 1417 1408 1411 1417 1424 1419 1421 1432 1429 1431 1430 1439 1447 1439 1451 1439 1428 1441 1445 1451 1457 1459 1470
1504 1497 1490 1489 1485 1482 1479 1472 1468 1473 1468 1432 1435 1431 1426 1420 1414 1402 1406 1406 1407 1409 1403 1405 1403 1406 1410 1411 1415 1420 1428 1432 1430 1438 1460 1442 1447 1445 1428 1426 1425 1431 1441 1447 1455
1499 1493 1489 1487 1485 1482 1478 1474 1474 1473 1439 1440 1442 1439 1435 1427 1414 1414 1405 1402 1407 1419 1410 1404 1399 1395 1398 1411 1409 1417 1435 1465 1470 1458 1460 1435 1446 1437 1411 1408 1411 1417 1428 1435 1442
1497 1489 1487 1485 1484 1482 1481 1479 1483 1453 1454 1446 1449 1445 1442 1435 1429 1425 1424 1403 1394 1398 1409 1415 1413 1388 1389 1396 1411 1412 1419 1453 1476 1467 1456 1429 1437 1423 1406 1404 1407 1407 1412 1423 1433
1496 1487 1482 1482 1483 1484 1483 1482 1468 1460 1457 1456 1450 1449 1447 1444 1444 1445 1440 1421 1399 1389 1405 1407 1397 1380 1383 1385 1392 1407 1417 1412 1435 1433 1451 1438 1424 1409 1399 1397 1398 1404 1411 1415 1427
1493 1484 1483 1483 1482 1481 1481 1479 1471 1464 1461 1461 1466 1459 1456 1454 1457 1458 1452 1425 1426 1420 1406 1387 1411 1378 1375 1384 1380 1387 1396 1426 1423 1462 1466 1439 1431 1419 1405 1398 1390 1396 1401 1405 1410
1496 1490 1482 1483 1480 1478 1478 1471 1469 1467 1469 1469 1469 1465 1458 1460 1464 1464 1458 1441 1440 1431 1426 1414 1396 1378 1375 1375 1381 1387 1397 1398 1415 1430 1458 1459 1427 1383 1384 1381 1384 1385 1391 1398 1405
1500 1494 1483 1483 1479 1474 1474 1472 1470 1469 1469 1469 1470 1466 1463 1461 1463 1466 1460 1461 1454 1454 1447 1422 1407 1387 1376 1362 1359 1373 1382 1393 1413 1432 1419 1424 1415 1367 1361 1359 1369 1377 1382 1390 1398
1503 1494 1485 1482 1482 1480 1478 1476 1471 1469 1472 1474 1472 1466 1464 1463 1467 1468 1464 1458 1456 1456 1443 1432 1411 1399 1382 1376 1365 1365 1368 1376 1392 1406 1419 1434 1424 1366 1356 1352 1362 1372 1377 1384 1392
1507 1497 1491 1486 1487 1486 1482 1478 1473 1470 1472 1474 1471 1469 1465 1462 1462 1468 1466 1460 1455 1450 1445 1438 1410 1408 1391 1373 1365 1370 1363 1369 1386 1404 1406 1406 1399 1376 1368 1362 1365 1370 1375 1381 1388
1511 1506 1507 1499 1492 1493 1487 1480 1479 1471 1470 1469 1466 1464 1469 1468 1461 1460 1460 1454 1449 1446 1443 1439 1411 1393 1373 1361 1361 1355 1358 1362 1374 1383 1397 1391 1396 1381 1370 1367 1367 1370 1376 1380 1385
1514 1513 1509 1505 1499 1492 1486 1481 1477 1472 1471 1464 1463 1460 1462 1464 1470 1460 1452 1450 1450 1446 1448 1429 1414 1393 1375 1358 1357 1362 1352 1347 1361 1369 1379 1378 1385 1368 1367 1368 1372 1377 1380 1384 1389
1513 1511 1510 1505 1500 1495 1488 1483 1481 1478 1473 1470 1462 1459 1457 1454 1452 1451 1447 1443 1444 1445 1448 1436 1419 1407 1388 1362 1366 1377 1359 1355 1353 1358 1367 1385 1372 1368 1371 1371 1371 1377 1384 1388 1393
Wind_Speed
23 23 23 24 24 24 24 25 24 23 21 20 20 17 17 18 19 22 33 27 16 21 11 9 15 22 16 21 22 15 5 5 6 11 5 2 21 28 26 33 14 16 37 40 41
24 24 25 25 26 26 27 27 26 24 21 21 16 15 15 18 21 30 31 23 23 17 19 18 19 20 26 24 16 8 2 9 9 10 9 11 24 26 28 27 27 36 38 40 41
24 25 26 27 27 27 27 28 28 25 21 20 18 15 14 14 19 19 4 16 23 24 21 20 17 24 24 24 25 16 9 11 20 20 16 22 5 23 29 17 40 44 45 39 40
25 26 26 27 27 28 28 27 27 25 23 19 17 15 11 9 4 2 3 5 21 24 22 21 24 26 16 18 31 11 17 13 13 11 9 8 10 14 34 21 42 48 48 44 40
26 27 27 27 28 28 28 27 26 24 23 20 16 12 9 9 26 9 5 4 17 27 28 26 27 25 19 20 23 18 11 23 15 18 27 42 28 21 32 40 43 44 42 41 36
28 27 28 28 28 28 27 27 27 25 22 21 17 11 11 9 15 8 19 11 14 32 29 27 20 26 17 23 17 21 19 17 14 28 15 18 7 18 38 45 44 43 43 41 37
29 29 29 29 29 29 26 25 25 26 21 20 18 13 16 32 8 7 21 15 14 27 31 30 27 24 28 12 32 26 11 14 20 24 11 15 6 11 41 43 40 41 42 41 43
31 31 30 30 29 28 26 27 24 28 20 17 13 10 15 11 11 20 24 19 12 17 26 25 26 29 29 22 23 17 16 15 22 19 24 20 8 18 43 47 40 38 40 43 44
32 31 30 29 28 25 25 28 29 30 11 10 1 5 16 7 19 26 24 26 16 19 19 21 25 31 26 15 13 10 12 9 13 15 9 7 8 17 36 36 30 37 39 40 45
34 33 31 28 25 20 22 29 35 11 17 14 4 9 14 10 10 21 26 23 26 19 24 24 20 14 14 11 16 10 7 11 12 16 12 7 8 27 37 45 44 27 36 38 41
35 35 32 28 23 19 23 30 29 7 16 23 28 31 55 14 15 20 25 26 24 28 16 25 10 21 22 18 11 11 17 11 12 15 11 15 10 26 33 35 31 27 33 39 39
35 36 34 28 21 17 20 26 22 23 31 33 42 43 46 40 22 16 25 26 24 20 17 12 23 18 14 15 19 18 21 17 15 17 10 16 14 16 25 35 40 37 27 28 38
37 36 35 29 16 15 16 26 26 27 13 29 24 26 36 26 28 42 20 35 16 22 24 23 13 19 19 20 23 22 18 17 14 13 17 16 18 9 25 33 34 42 42 42 44
39 35 33 31 11 19 18 31 30 23 5 9 5 8 12 20 11 38 34 32 20 23 23 26 20 24 26 23 21 19 18 21 20 14 7 11 6 10 16 22 29 44 45 54 47
36 33 31 17 21 19 29 34 25 20 5 12 20 15 49 14 8 19 37 29 26 21 20 25 24 24 26 26 21 15 17 21 22 15 8 11 11 12 12 20 27 27 46 52 52
37 32 24 11 11 19 23 28 26 2 6 9 24 24 30 28 23 30 16 33 27 22 23 24 20 23 25 20 17 16 10 11 16 14 13 14 9 9 15 18 16 31 46 46 49
39 33 11 9 12 20 26 26 4 3 12 12 23 22 23 21 19 23 17 19 19 19 25 18 28 22 17 20 20 18 12 7 9 13 13 8 7 8 6 16 14 22 39 44 52
38 25 11 11 11 17 23 10 5 8 13 19 17 20 16 20 23 28 29 12 21 22 5 20 19 31 23 21 16 22 21 6 8 8 10 7 15 9 11 9 19 25 36 46 51
37 26 11 14 9 16 16 4 5 9 13 15 23 15 22 22 16 26 22 13 16 21 23 13 28 14 28 15 18 17 19 11 3 7 3 4 8 12 20 15 13 14 22 46 45
36 27 5 6 14 12 5 10 16 14 15 15 17 14 20 12 13 16 14 14 24 26 25 27 12 18 20 24 20 20 11 12 9 9 9 11 14 16 16 21 17 12 14 44 48
26 15 4 19 19 15 8 7 14 18 20 11 13 19 16 8 13 15 10 27 23 29 29 18 11 29 14 25 28 11 12 15 5 6 6 4 8 18 22 23 21 16 21 34 45
17 5 15 21 13 10 9 15 20 17 12 9 9 11 15 16 4 8 15 8 33 30 25 17 8 15 29 17 26 18 19 13 11 13 7 6 11 9 8 27 23 19 27 29 45
16 11 17 15 5 6 13 15 19 11 10 8 7 12 14 8 4 8 11 13 18 24 13 15 6 6 18 13 19 28 20 20 8 6 14 7 6 5 10 18 22 16 22 30 39
9 4 12 16 20 15 13 14 15 12 5 4 8 5 14 11 2 2 8 9 24 27 35 29 11 13 12 16 6 11 24 19 13 12 15 11 6 5 8 8 8 17 11 36 25
6 5 8 6 11 17 17 13 14 16 6 12 5 5 8 8 12 5 10 15 19 18 20 15 8 14 15 15 14 18 27 23 22 17 16 12 6 7 2 7 6 13 14 24 26
7 4 5 12 17 14 15 10 15 19 20 13 11 9 6 8 6 10 12 9 6 13 17 19 7 17 7 11 10 8 12 26 23 20 17 12 8 8 9 20 22 24 27 27 25
6 8 6 5 9 9 6 13 20 18 12 28 19 13 13 10 21 16 27 17 14 9 13 18 11 10 5 3 6 6 9 8 21 19 16 13 8 8 5 8 14 26 24 21 22
Wind_Direction
4 1 357 354 350 347 343 339 337 332 326 320 310 297 288 283 277 266 257 249 248 229 197 179 194 180 189 203 202 169 107 270 277 306 349 342 115 134 133 136 154 194 150 151 149
3 359 355 351 348 345 342 337 336 333 326 325 318 306 289 285 284 270 265 259 229 207 206 193 193 194 208 210 226 166 104 191 209 278 291 327 123 134 113 107 104 116 139 152 155
0 357 353 349 347 345 341 336 334 331 326 322 315 306 291 287 300 288 284 229 213 212 214 205 199 197 210 224 229 180 215 200 225 252 258 256 229 149 119 123 140 140 150 154 161
0 357 353 350 349 346 342 338 334 331 326 322 315 307 274 253 243 194 12 200 197 202 205 201 216 207 211 220 230 210 225 209 266 271 173 78 289 241 139 153 148 147 154 155 162
359 355 352 350 348 345 343 342 336 333 327 320 311 301 257 231 241 198 257 287 196 196 202 202 223 213 214 222 231 229 188 232 315 285 181 153 214 98 129 142 146 150 155 160 164
359 356 353 351 349 345 342 339 334 330 322 317 303 288 233 246 277 242 241 252 218 196 202 203 220 219 230 233 237 243 207 151 240 258 195 175 145 135 139 144 148 158 162 167 170
358 356 353 351 351 348 346 339 330 324 319 314 300 276 238 244 221 264 227 236 236 210 202 205 212 229 227 248 243 256 237 202 207 243 201 192 102 144 145 143 155 162 168 172 175
354 353 350 348 350 351 355 346 334 335 311 308 292 256 253 287 217 215 199 227 228 216 214 211 216 242 254 248 260 248 255 224 219 225 236 169 185 148 153 148 161 168 175 178 182
354 352 349 346 348 352 4 2 343 334 329 323 262 240 267 288 222 196 193 206 208 205 220 217 223 235 249 237 255 255 250 230 248 227 224 176 167 172 159 152 158 176 180 185 185
353 351 348 347 347 356 355 2 350 10 22 0 256 295 262 250 233 224 195 197 201 204 199 215 226 230 234 223 223 228 237 250 235 243 205 212 224 162 175 143 157 211 189 187 184
352 349 348 350 348 1 347 360 3 337 314 285 266 268 282 263 283 215 202 212 215 202 203 208 214 224 215 227 237 230 239 226 247 235 192 212 217 163 159 151 165 184 195 186 200
351 347 347 348 343 353 355 358 352 312 302 285 261 257 255 260 284 245 196 198 216 203 200 203 226 224 210 218 235 233 242 248 236 242 198 204 219 170 165 166 164 169 226 230 194
348 345 344 341 343 359 356 344 338 330 295 299 269 252 247 247 236 252 232 205 212 208 202 208 217 218 216 218 221 232 236 245 244 250 239 199 220 220 179 160 149 159 178 225 193
346 341 339 335 349 347 340 339 333 331 307 279 207 344 357 222 255 242 237 210 223 220 212 222 226 200 225 221 219 221 233 248 254 259 251 180 205 233 178 169 167 170 186 202 195
341 340 328 340 325 333 341 329 328 321 317 17 3 349 357 176 246 217 224 224 214 217 210 217 195 226 210 224 218 226 220 233 248 259 271 267 201 228 216 182 189 178 188 190 188
342 339 321 344 326 348 332 326 320 230 251 324 9 353 347 339 320 290 232 230 221 230 235 231 216 220 227 214 225 227 229 244 244 248 255 247 221 229 212 202 183 186 189 185 180
341 338 308 320 338 353 342 327 305 230 333 356 359 346 330 341 344 358 305 219 210 218 232 228 228 219 226 219 204 216 208 227 229 229 235 243 246 215 222 196 182 186 184 180 180
341 338 310 285 334 344 326 310 263 295 343 341 349 329 324 351 340 346 338 279 228 221 213 228 230 217 210 225 200 207 216 182 209 212 239 234 249 254 254 240 235 200 181 177 181
347 342 355 340 328 326 310 288 310 347 358 347 337 343 334 336 353 341 331 317 308 213 227 216 243 196 229 211 213 206 217 211 218 205 208 220 267 268 261 257 241 228 187 179 184
348 346 8 5 322 306 280 261 311 5 357 354 339 326 318 348 338 339 318 303 344 350 339 245 275 227 220 225 238 216 176 213 214 197 221 231 219 229 228 236 240 222 241 188 183
2 329 354 342 332 297 264 307 330 15 4 342 336 318 315 8 358 320 290 313 360 339 333 319 247 249 236 205 217 205 210 201 182 186 187 228 245 229 223 216 220 221 209 188 185
354 309 346 344 319 344 360 353 348 348 7 10 314 336 345 332 296 311 288 290 333 326 321 305 290 236 239 246 210 222 211 195 203 225 233 231 261 332 296 205 202 213 214 194 186
322 290 330 352 351 358 339 335 330 354 19 3 309 324 316 345 340 344 322 298 324 314 327 328 326 268 249 256 258 213 200 212 182 154 230 223 267 311 332 181 184 180 205 215 185
320 315 343 331 2 356 337 318 326 335 357 252 278 320 311 327 132 258 279 304 318 310 313 315 253 249 256 233 232 222 206 202 199 205 228 232 215 330 357 97 148 172 177 194 166
345 350 6 310 332 324 310 316 329 315 224 266 253 318 3 313 317 332 323 319 311 326 319 311 271 267 269 269 278 261 198 194 207 210 205 230 215 177 193 59 98 150 136 180 169
319 343 331 296 312 302 309 327 312 334 332 326 321 309 284 240 172 287 299 309 306 320 319 305 282 321 294 277 288 308 277 195 201 213 223 228 227 208 170 107 86 89 99 90 91
301 274 286 275 305 305 290 323 325 327 323 322 307 319 305 304 316 292 275 264 257 241 299 293 321 328 298 17 338 309 250 256 197 200 210 232 200 167 169 138 129 110 96 91 89